QPF
0.00 0.00 0.00 0.00 0.00 0.00 0.00 0.00 0.00 0.00 0.00 0.00 0.00 0.00 0.00 0.00 0.00 0.00 0.00 0.00 0.00 0.00 0.01 0.01 0.00 0.00 0.00 0.00 0.00 0.00 0.00 0.00 0.00 0.00 0.00 0.00 0.00 0.00 0.00 0.00 0.00 0.00 0.00
0.00 0.00 0.00 0.00 0.00 0.00 0.00 0.00 0.00 0.00 0.00 0.00 0.00 0.00 0.00 0.00 0.00 0.00 0.00 0.00 0.00 0.00 0.00 0.00 0.00 0.00 0.00 0.00 0.00 0.00 0.00 0.00 0.00 0.00 0.00 0.00 0.00 0.00 0.00 0.00 0.00 0.00 0.00
0.00 0.00 0.00 0.00 0.00 0.00 0.00 0.00 0.00 0.00 0.00 0.00 0.00 0.00 0.00 0.00 0.00 0.00 0.00 0.00 0.00 0.00 0.00 0.00 0.00 0.00 0.00 0.00 0.00 0.00 0.00 0.00 0.00 0.00 0.00 0.00 0.00 0.00 0.00 0.00 0.00 0.00 0.00
0.00 0.00 0.00 0.00 0.00 0.00 0.00 0.00 0.00 0.00 0.00 0.00 0.00 0.00 0.00 0.00 0.00 0.00 0.00 0.00 0.00 0.00 0.00 0.00 0.00 0.00 0.00 0.00 0.00 0.00 0.00 0.00 0.00 0.00 0.00 0.00 0.00 0.00 0.00 0.00 0.00 0.00 0.00
0.00 0.00 0.00 0.00 0.00 0.00 0.00 0.00 0.00 0.00 0.00 0.00 0.00 0.00 0.00 0.00 0.00 0.00 0.00 0.00 0.00 0.00 0.00 0.00 0.00 0.00 0.00 0.00 0.00 0.00 0.00 0.00 0.00 0.00 0.00 0.00 0.00 0.00 0.00 0.00 0.00 0.00 0.00
0.00 0.00 0.00 0.00 0.00 0.00 0.00 0.00 0.00 0.00 0.00 0.00 0.00 0.00 0.00 0.00 0.00 0.00 0.00 0.00 0.00 0.00 0.00 0.00 0.00 0.00 0.00 0.00 0.00 0.00 0.00 0.00 0.00 0.00 0.00 0.00 0.00 0.00 0.00 0.00 0.00 0.00 0.00
0.00 0.00 0.00 0.00 0.00 0.00 0.00 0.00 0.00 0.00 0.00 0.00 0.00 0.00 0.00 0.00 0.00 0.00 0.00 0.00 0.00 0.00 0.00 0.00 0.00 0.00 0.00 0.00 0.00 0.00 0.00 0.00 0.00 0.00 0.00 0.00 0.00 0.00 0.00 0.00 0.00 0.00 0.00
0.00 0.00 0.00 0.00 0.00 0.00 0.00 0.00 0.00 0.00 0.00 0.00 0.00 0.00 0.00 0.00 0.00 0.00 0.00 0.00 0.00 0.00 0.00 0.00 0.00 0.00 0.00 0.00 0.00 0.00 0.00 0.00 0.00 0.00 0.00 0.00 0.00 0.00 0.00 0.00 0.00 0.00 0.00
0.00 0.00 0.00 0.00 0.00 0.00 0.00 0.00 0.00 0.00 0.00 0.00 0.00 0.00 0.00 0.00 0.00 0.00 0.00 0.00 0.00 0.00 0.00 0.00 0.00 0.00 0.00 0.00 0.00 0.00 0.00 0.00 0.00 0.00 0.00 0.00 0.00 0.00 0.00 0.00 0.00 0.00 0.00
0.00 0.00 0.00 0.00 0.00 0.00 0.00 0.00 0.00 0.00 0.00 0.00 0.00 0.00 0.00 0.00 0.00 0.00 0.00 0.00 0.00 0.00 0.00 0.00 0.00 0.00 0.00 0.00 0.00 0.00 0.00 0.00 0.00 0.00 0.00 0.00 0.00 0.00 0.00 0.00 0.00 0.00 0.00
0.00 0.00 0.00 0.00 0.00 0.00 0.00 0.00 0.00 0.00 0.00 0.00 0.00 0.00 0.00 0.00 0.00 0.00 0.00 0.00 0.00 0.00 0.00 0.00 0.00 0.00 0.00 0.00 0.00 0.00 0.00 0.00 0.00 0.00 0.00 0.00 0.00 0.00 0.00 0.00 0.00 0.00 0.00
0.00 0.00 0.00 0.00 0.00 0.00 0.00 0.00 0.00 0.00 0.00 0.00 0.00 0.00 0.00 0.00 0.00 0.00 0.00 0.00 0.00 0.00 0.00 0.00 0.00 0.00 0.00 0.00 0.00 0.00 0.00 0.00 0.00 0.00 0.00 0.00 0.00 0.00 0.00 0.00 0.00 0.00 0.00
0.00 0.00 0.00 0.00 0.00 0.00 0.00 0.00 0.00 0.00 0.00 0.00 0.00 0.00 0.00 0.00 0.00 0.00 0.00 0.00 0.00 0.00 0.00 0.00 0.00 0.00 0.00 0.00 0.00 0.00 0.00 0.00 0.00 0.00 0.00 0.00 0.00 0.00 0.00 0.00 0.00 0.00 0.00
0.00 0.00 0.00 0.00 0.00 0.00 0.00 0.00 0.00 0.00 0.00 0.00 0.00 0.00 0.00 0.00 0.00 0.00 0.00 0.00 0.00 0.00 0.00 0.00 0.00 0.00 0.00 0.00 0.00 0.00 0.00 0.00 0.00 0.00 0.00 0.00 0.00 0.00 0.00 0.00 0.00 0.00 0.00
0.00 0.00 0.01 0.01 0.00 0.00 0.00 0.00 0.00 0.00 0.00 0.00 0.00 0.00 0.00 0.00 0.00 0.00 0.00 0.00 0.00 0.00 0.00 0.00 0.00 0.00 0.00 0.00 0.00 0.00 0.00 0.00 0.00 0.00 0.00 0.00 0.00 0.00 0.00 0.00 0.00 0.00 0.00
0.00 0.01 0.03 0.04 0.01 0.01 0.00 0.00 0.00 0.00 0.00 0.00 0.00 0.00 0.00 0.00 0.00 0.00 0.00 0.00 0.00 0.00 0.00 0.00 0.00 0.00 0.00 0.00 0.00 0.00 0.00 0.00 0.00 0.00 0.00 0.00 0.00 0.00 0.00 0.00 0.00 0.00 0.00
0.00 0.00 0.04 0.05 0.04 0.00 0.00 0.00 0.00 0.00 0.00 0.00 0.00 0.00 0.00 0.00 0.00 0.00 0.00 0.00 0.00 0.00 0.00 0.00 0.00 0.00 0.00 0.00 0.00 0.00 0.00 0.00 0.00 0.00 0.00 0.00 0.00 0.00 0.00 0.00 0.00 0.00 0.00
0.00 0.00 0.01 0.05 0.04 0.03 0.01 0.00 0.00 0.00 0.00 0.00 0.00 0.01 0.00 0.01 0.00 0.00 0.00 0.00 0.00 0.00 0.00 0.00 0.00 0.00 0.00 0.00 0.00 0.00 0.00 0.00 0.00 0.00 0.00 0.00 0.00 0.00 0.00 0.00 0.00 0.00 0.00
0.00 0.00 0.02 0.02 0.01 0.05 0.04 0.02 0.02 0.01 0.00 0.00 0.00 0.01 0.01 0.02 0.02 0.00 0.00 0.00 0.00 0.00 0.00 0.00 0.00 0.00 0.00 0.00 0.00 0.00 0.00 0.00 0.00 0.00 0.00 0.00 0.00 0.00 0.00 0.00 0.00 0.00 0.00
0.00 0.00 0.01 0.02 0.00 0.03 0.03 0.04 0.03 0.01 0.01 0.00 0.00 0.00 0.00 0.01 0.01 0.00 0.00 0.00 0.00 0.00 0.00 0.00 0.00 0.00 0.00 0.00 0.00 0.00 0.00 0.00 0.00 0.00 0.00 0.00 0.00 0.00 0.00 0.00 0.00 0.00 0.00
0.00 0.00 0.00 0.01 0.01 0.04 0.02 0.02 0.01 0.01 0.01 0.00 0.00 0.00 0.00 0.00 0.01 0.01 0.01 0.01 0.00 0.00 0.00 0.00 0.00 0.00 0.00 0.00 0.00 0.00 0.00 0.00 0.00 0.00 0.00 0.00 0.00 0.00 0.00 0.00 0.00 0.00 0.00
0.00 0.00 0.01 0.01 0.02 0.01 0.00 0.03 0.07 0.04 0.02 0.00 0.00 0.00 0.00 0.01 0.02 0.02 0.01 0.01 0.01 0.00 0.00 0.00 0.00 0.00 0.00 0.00 0.00 0.00 0.00 0.00 0.00 0.00 0.00 0.00 0.00 0.00 0.00 0.00 0.00 0.00 0.00
0.00 0.01 0.01 0.02 0.02 0.01 0.03 0.01 0.06 0.08 0.04 0.01 0.00 0.00 0.00 0.01 0.02 0.02 0.02 0.01 0.01 0.01 0.00 0.00 0.00 0.00 0.00 0.00 0.00 0.00 0.00 0.00 0.00 0.00 0.00 0.00 0.00 0.00 0.00 0.00 0.00 0.00 0.00
0.02 0.02 0.02 0.02 0.05 0.06 0.07 0.06 0.11 0.15 0.08 0.03 0.00 0.01 0.00 0.00 0.01 0.02 0.02 0.03 0.03 0.02 0.00 0.00 0.00 0.00 0.00 0.00 0.00 0.00 0.00 0.00 0.00 0.00 0.00 0.00 0.00 0.00 0.00 0.00 0.00 0.00 0.00
0.03 0.03 0.03 0.03 0.04 0.05 0.08 0.13 0.23 0.18 0.09 0.04 0.01 0.00 0.00 0.00 0.01 0.02 0.03 0.03 0.03 0.02 0.01 0.00 0.00 0.00 0.00 0.00 0.00 0.00 0.00 0.00 0.00 0.00 0.00 0.00 0.00 0.00 0.00 0.00 0.00 0.00 0.00
0.02 0.02 0.02 0.03 0.04 0.03 0.04 0.05 0.13 0.13 0.07 0.03 0.01 0.00 0.01 0.01 0.00 0.02 0.02 0.04 0.04 0.02 0.02 0.01 0.00 0.00 0.00 0.00 0.00 0.00 0.00 0.00 0.00 0.00 0.00 0.00 0.00 0.00 0.00 0.00 0.00 0.00 0.00
MSLP
1025.42 1025.80 1026.22 1026.56 1026.85 1027.05 1027.28 1027.49 1027.60 1027.36 1027.45 1027.98 1028.48 1028.80 1029.36 1029.85 1030.31 1030.61 1030.61 1030.45 1030.61 1030.79 1031.00 1031.07 1031.13 1031.22 1031.24 1031.44 1031.56 1031.50 1031.59 1031.75 1031.89 1032.10 1032.25 1032.22 1032.11 1032.09 1032.03 1031.94 1031.87 1031.72 1031.81
1024.95 1025.29 1025.91 1026.28 1026.61 1027.02 1027.09 1027.41 1027.32 1027.59 1027.89 1028.29 1028.77 1028.95 1029.48 1030.04 1030.48 1030.82 1031.02 1031.03 1031.03 1031.16 1031.29 1031.39 1031.39 1031.50 1031.55 1031.72 1031.85 1032.01 1032.08 1032.11 1032.25 1032.40 1032.61 1032.60 1032.66 1032.57 1032.45 1032.33 1032.21 1032.07 1032.02
1024.58 1024.85 1025.40 1025.87 1026.35 1026.56 1026.88 1027.11 1027.53 1027.78 1028.12 1028.47 1028.98 1029.39 1029.77 1030.10 1030.43 1030.79 1031.11 1031.29 1031.39 1031.49 1031.52 1031.65 1031.70 1031.81 1031.89 1032.00 1032.06 1032.23 1032.30 1032.34 1032.58 1032.77 1032.77 1032.90 1032.90 1032.96 1032.85 1032.81 1032.73 1032.39 1032.18
1024.15 1024.56 1024.93 1025.43 1025.97 1026.40 1026.65 1027.34 1027.87 1028.32 1028.70 1028.81 1029.38 1029.65 1030.07 1030.29 1030.56 1030.87 1031.20 1031.42 1031.51 1031.68 1031.72 1031.95 1032.03 1032.00 1032.03 1032.11 1032.21 1032.33 1032.55 1032.71 1032.85 1032.94 1033.11 1033.21 1033.19 1033.24 1033.19 1032.98 1032.89 1032.75 1032.61
1023.86 1024.26 1024.65 1025.13 1025.57 1026.13 1026.70 1027.18 1027.89 1028.35 1028.87 1029.24 1029.69 1029.93 1030.02 1030.33 1030.71 1030.85 1031.21 1031.54 1031.76 1031.86 1031.95 1031.97 1032.16 1032.20 1032.13 1032.15 1032.30 1032.47 1032.67 1032.80 1032.86 1032.96 1033.20 1033.31 1033.39 1033.38 1033.27 1033.23 1033.18 1033.16 1032.96
1023.46 1024.11 1024.53 1024.92 1025.33 1025.96 1026.60 1027.09 1027.68 1028.29 1028.77 1029.33 1029.79 1030.22 1030.27 1030.36 1030.62 1030.81 1031.00 1031.31 1031.67 1031.90 1032.05 1032.06 1032.20 1032.28 1032.23 1032.24 1032.32 1032.35 1032.53 1032.61 1032.83 1033.06 1033.22 1033.48 1033.51 1033.49 1033.48 1033.44 1033.34 1033.33 1033.16
1023.11 1023.70 1024.32 1024.92 1025.09 1025.54 1026.33 1026.87 1027.64 1028.11 1028.89 1029.27 1029.99 1030.72 1030.97 1030.78 1030.71 1030.68 1030.74 1031.08 1031.56 1031.77 1032.09 1032.08 1032.22 1032.30 1032.25 1032.20 1032.24 1032.18 1032.24 1032.48 1032.79 1033.11 1033.45 1033.64 1033.73 1033.84 1033.73 1033.50 1033.50 1033.46 1033.34
1022.75 1023.06 1023.68 1024.39 1024.80 1025.23 1026.06 1026.69 1027.10 1028.04 1028.62 1028.97 1029.79 1030.55 1031.31 1031.36 1030.99 1030.77 1030.86 1030.93 1031.00 1031.40 1031.65 1031.88 1032.01 1032.20 1032.22 1032.09 1032.16 1032.01 1032.10 1032.41 1032.62 1033.01 1033.31 1033.47 1033.50 1033.53 1033.55 1033.57 1033.53 1033.51 1033.45
1021.59 1022.48 1023.05 1023.57 1024.24 1024.67 1025.55 1026.18 1026.59 1027.23 1028.21 1028.78 1028.79 1029.42 1030.76 1030.84 1030.93 1030.71 1030.78 1030.88 1030.97 1031.07 1031.10 1031.19 1031.60 1031.74 1031.99 1032.03 1032.00 1031.96 1032.09 1032.30 1032.44 1032.71 1032.97 1033.25 1033.42 1033.52 1033.67 1033.74 1033.70 1033.56 1033.52
1021.78 1022.03 1022.47 1023.01 1023.52 1024.05 1024.87 1025.50 1025.91 1026.61 1027.39 1028.31 1028.76 1028.43 1028.68 1029.15 1030.29 1030.83 1030.58 1030.61 1030.58 1030.68 1030.79 1031.04 1030.91 1031.12 1031.36 1031.59 1031.66 1031.85 1031.95 1032.15 1032.34 1032.54 1032.55 1032.79 1033.06 1033.32 1033.46 1033.58 1033.75 1033.79 1033.70
1021.40 1021.83 1021.86 1022.15 1022.78 1023.39 1024.10 1024.75 1025.44 1025.98 1026.60 1027.34 1027.63 1028.21 1028.47 1028.67 1028.87 1029.65 1030.23 1030.35 1030.49 1030.13 1030.13 1030.41 1030.46 1030.52 1030.85 1031.22 1031.33 1031.53 1031.65 1031.82 1032.03 1032.25 1032.32 1032.37 1032.59 1032.80 1033.11 1033.21 1033.35 1033.50 1033.47
1021.53 1021.59 1022.13 1022.11 1022.35 1022.67 1023.37 1024.04 1024.67 1025.33 1025.99 1026.53 1027.04 1027.35 1027.63 1028.07 1028.22 1028.69 1029.15 1029.57 1029.78 1029.75 1029.65 1029.76 1029.96 1030.03 1030.15 1030.60 1030.78 1030.89 1031.08 1031.40 1031.62 1031.77 1032.01 1031.99 1032.04 1032.17 1032.60 1032.84 1032.97 1033.03 1033.13
1021.06 1021.40 1021.67 1021.96 1022.45 1022.65 1023.09 1023.61 1024.18 1024.72 1025.26 1025.99 1026.27 1026.50 1026.78 1027.01 1027.03 1027.45 1027.99 1028.59 1028.92 1029.06 1029.26 1029.20 1029.13 1029.25 1029.40 1029.70 1029.96 1030.29 1030.58 1030.93 1031.29 1031.45 1031.50 1031.67 1031.77 1031.87 1031.92 1032.08 1032.38 1032.43 1032.48
1020.10 1020.67 1021.14 1021.41 1021.99 1022.59 1023.09 1023.52 1023.81 1024.20 1024.46 1025.18 1025.72 1025.97 1026.09 1026.27 1026.39 1026.57 1026.88 1027.64 1028.41 1028.60 1028.61 1028.33 1028.31 1028.45 1028.58 1028.73 1029.02 1029.43 1029.92 1030.17 1030.55 1030.94 1031.06 1031.18 1031.27 1031.38 1031.60 1031.70 1031.77 1031.98 1032.04
1019.43 1020.16 1020.35 1020.83 1021.30 1021.81 1022.53 1023.15 1023.66 1023.82 1024.25 1024.56 1024.90 1025.36 1025.51 1025.51 1025.65 1025.79 1026.08 1026.37 1026.98 1027.83 1027.95 1027.69 1027.78 1027.39 1027.69 1028.05 1028.25 1028.71 1029.09 1029.42 1029.83 1030.27 1030.53 1030.64 1030.75 1030.86 1030.97 1031.18 1031.30 1031.44 1031.66
1018.79 1019.10 1019.81 1020.24 1020.66 1021.17 1021.71 1022.38 1022.85 1023.37 1023.78 1024.01 1024.23 1024.63 1024.91 1024.97 1024.96 1025.08 1025.25 1025.45 1025.84 1026.19 1026.64 1026.47 1026.44 1026.37 1026.66 1027.04 1027.51 1027.91 1028.29 1028.69 1029.07 1029.29 1029.68 1030.03 1030.19 1030.37 1030.54 1030.68 1030.83 1030.95 1030.97
1018.42 1018.70 1019.06 1019.63 1020.09 1020.52 1021.01 1021.74 1022.17 1022.56 1023.11 1023.38 1023.66 1023.79 1023.84 1024.16 1024.31 1024.46 1024.44 1024.59 1024.89 1025.19 1025.51 1025.44 1025.46 1025.50 1026.01 1026.29 1026.93 1027.39 1027.59 1027.90 1028.19 1028.48 1028.77 1029.10 1029.46 1029.81 1029.97 1030.07 1030.16 1030.26 1030.36
1017.67 1018.00 1018.50 1018.96 1019.42 1019.77 1020.21 1020.84 1021.21 1021.55 1021.87 1022.36 1022.63 1022.89 1022.86 1023.20 1023.33 1023.56 1023.74 1023.76 1023.88 1023.99 1024.42 1024.78 1025.04 1025.24 1025.32 1025.36 1025.79 1026.59 1026.82 1027.07 1027.20 1027.48 1027.83 1028.15 1028.64 1028.92 1029.04 1029.28 1029.50 1029.57 1029.70
1016.89 1017.21 1017.71 1018.09 1018.40 1018.87 1019.31 1019.75 1020.15 1020.55 1020.74 1020.88 1021.28 1021.65 1021.76 1022.15 1022.37 1022.45 1022.67 1022.77 1022.94 1023.07 1023.34 1023.78 1024.19 1024.50 1024.80 1024.87 1025.79 1025.99 1026.14 1026.05 1026.35 1026.48 1026.86 1027.14 1027.37 1027.72 1028.15 1028.44 1028.59 1028.79 1028.97
1016.04 1016.36 1016.62 1017.06 1017.40 1017.78 1018.29 1018.65 1019.18 1019.55 1019.83 1019.84 1019.92 1020.15 1020.48 1020.89 1021.02 1021.25 1021.51 1021.69 1021.83 1022.20 1022.51 1022.84 1023.31 1023.68 1023.89 1024.18 1024.56 1025.11 1025.73 1025.65 1025.60 1025.47 1025.75 1025.96 1026.34 1026.52 1026.83 1027.08 1027.34 1027.73 1027.94
1014.87 1015.36 1015.67 1015.99 1016.44 1016.68 1017.14 1017.55 1018.01 1018.25 1018.63 1018.76 1018.83 1018.88 1019.05 1019.44 1019.82 1020.03 1020.24 1020.38 1020.81 1021.17 1021.45 1021.85 1022.13 1022.57 1022.88 1023.27 1023.38 1023.84 1024.27 1024.64 1024.65 1024.80 1024.87 1025.17 1025.57 1025.76 1025.91 1026.16 1026.37 1026.65 1026.78
1014.18 1014.44 1014.59 1014.98 1015.25 1015.52 1015.86 1016.17 1016.82 1017.20 1017.33 1017.51 1017.56 1017.60 1017.75 1018.14 1018.53 1018.78 1018.98 1019.03 1019.43 1019.74 1019.90 1020.16 1020.41 1020.85 1020.93 1021.20 1021.83 1022.45 1023.10 1023.94 1024.35 1023.60 1024.02 1023.65 1024.21 1024.54 1024.49 1024.75 1024.76 1024.92 1025.16
1013.28 1013.55 1013.85 1014.09 1014.13 1014.38 1014.69 1015.01 1015.40 1015.87 1016.05 1016.20 1016.25 1016.49 1016.72 1016.78 1017.08 1017.59 1017.87 1017.98 1018.05 1018.13 1018.11 1018.27 1018.42 1018.44 1018.98 1019.35 1020.29 1021.03 1021.45 1021.86 1021.61 1021.66 1022.34 1022.48 1022.95 1022.99 1023.04 1023.05 1023.33 1023.73 1023.85
1012.38 1012.63 1012.87 1013.02 1013.20 1013.23 1013.47 1013.97 1014.24 1014.57 1014.81 1014.85 1015.03 1015.08 1015.41 1015.53 1015.79 1016.14 1016.36 1016.76 1017.20 1016.97 1017.33 1017.15 1016.89 1016.73 1016.79 1017.39 1018.12 1018.40 1019.18 1019.71 1020.30 1020.75 1021.06 1021.74 1021.56 1021.52 1021.52 1021.35 1021.55 1021.90 1022.31
1011.68 1011.86 1011.92 1012.10 1012.15 1012.24 1012.53 1012.73 1013.42 1014.12 1013.81 1013.54 1013.70 1013.83 1014.12 1014.39 1014.52 1014.80 1015.08 1014.99 1015.04 1015.31 1015.13 1015.68 1015.44 1015.62 1016.06 1016.25 1016.64 1017.82 1018.61 1019.66 1019.90 1019.70 1019.78 1020.36 1020.52 1020.75 1020.70 1020.41 1020.11 1020.38 1020.75
1010.90 1011.09 1011.29 1011.19 1011.27 1011.49 1011.67 1011.85 1012.43 1012.80 1012.92 1012.74 1012.70 1012.60 1012.94 1013.31 1013.46 1013.44 1013.77 1013.49 1013.49 1013.40 1013.52 1013.60 1014.82 1014.77 1014.97 1015.13 1015.61 1015.59 1016.45 1017.53 1018.37 1018.69 1018.42 1019.42 1019.68 1020.30 1020.78 1019.68 1019.58 1019.37 1019.68
Thickness
5669 5668 5665 5663 5660 5658 5656 5654 5651 5652 5650 5643 5638 5635 5630 5626 5622 5619 5617 5615 5612 5608 5606 5602 5600 5599 5597 5594 5592 5590 5587 5583 5579 5573 5569 5567 5565 5562 5560 5557 5554 5552 5547
5671 5669 5665 5663 5660 5656 5655 5653 5652 5649 5647 5641 5635 5631 5627 5623 5619 5616 5613 5611 5608 5605 5603 5600 5598 5596 5594 5591 5588 5585 5582 5579 5576 5571 5566 5564 5561 5559 5557 5554 5551 5548 5543
5671 5671 5667 5663 5660 5658 5655 5652 5649 5646 5643 5639 5634 5629 5624 5621 5618 5615 5612 5609 5606 5602 5600 5598 5596 5594 5591 5589 5587 5583 5581 5578 5573 5569 5566 5562 5559 5555 5553 5549 5546 5544 5541
5671 5671 5668 5665 5660 5657 5655 5650 5645 5641 5637 5635 5631 5627 5622 5618 5616 5613 5610 5607 5605 5602 5598 5595 5593 5592 5589 5587 5585 5582 5578 5574 5570 5567 5563 5560 5556 5553 5550 5548 5544 5541 5537
5669 5668 5668 5664 5661 5657 5653 5649 5644 5640 5634 5630 5625 5623 5621 5618 5614 5611 5609 5605 5603 5601 5598 5595 5592 5590 5588 5585 5582 5579 5576 5573 5570 5567 5562 5559 5555 5551 5548 5545 5541 5536 5534
5668 5666 5664 5662 5659 5655 5651 5647 5643 5638 5634 5628 5624 5619 5617 5616 5614 5611 5608 5604 5602 5599 5597 5595 5592 5590 5586 5583 5580 5578 5576 5573 5570 5565 5561 5556 5553 5550 5546 5542 5539 5534 5531
5666 5663 5662 5658 5657 5654 5650 5646 5641 5637 5631 5626 5619 5612 5609 5610 5610 5610 5609 5606 5600 5598 5595 5594 5592 5589 5585 5583 5580 5579 5577 5573 5568 5564 5558 5553 5549 5545 5542 5541 5536 5533 5529
5662 5662 5660 5656 5654 5652 5648 5644 5641 5633 5629 5626 5617 5609 5602 5602 5606 5607 5606 5606 5604 5599 5596 5593 5591 5588 5586 5584 5581 5578 5576 5572 5569 5563 5559 5554 5551 5547 5544 5539 5535 5531 5527
5665 5661 5660 5657 5654 5652 5647 5644 5641 5636 5628 5624 5625 5615 5599 5598 5600 5604 5604 5604 5603 5601 5599 5596 5590 5588 5586 5584 5581 5579 5575 5572 5569 5564 5560 5555 5550 5544 5540 5536 5532 5529 5525
5657 5657 5657 5656 5655 5652 5648 5644 5642 5637 5631 5625 5620 5623 5619 5613 5602 5598 5602 5602 5602 5602 5600 5598 5596 5592 5588 5585 5582 5579 5575 5572 5567 5563 5561 5556 5550 5545 5540 5535 5529 5524 5521
5652 5652 5656 5655 5653 5653 5649 5645 5640 5637 5633 5629 5627 5620 5618 5615 5612 5604 5598 5599 5599 5602 5601 5599 5597 5596 5591 5586 5584 5580 5576 5573 5568 5563 5560 5558 5551 5546 5540 5536 5531 5526 5521
5641 5642 5644 5647 5647 5650 5648 5643 5639 5636 5632 5629 5628 5625 5621 5616 5614 5609 5604 5600 5601 5600 5601 5599 5597 5596 5593 5589 5584 5581 5578 5573 5569 5565 5560 5557 5555 5550 5542 5536 5531 5527 5522
5638 5635 5636 5638 5636 5638 5639 5637 5635 5634 5631 5628 5627 5626 5624 5621 5620 5616 5611 5604 5601 5602 5599 5599 5598 5596 5594 5590 5586 5582 5578 5572 5568 5564 5560 5556 5553 5548 5545 5540 5534 5529 5525
5641 5634 5636 5635 5632 5629 5630 5630 5630 5629 5629 5628 5626 5625 5624 5621 5620 5618 5614 5608 5601 5599 5598 5602 5601 5598 5595 5593 5590 5584 5580 5576 5570 5564 5560 5557 5553 5549 5544 5540 5536 5530 5525
5641 5633 5635 5634 5630 5630 5627 5625 5622 5624 5623 5624 5625 5623 5622 5621 5621 5619 5616 5613 5607 5597 5597 5600 5599 5600 5597 5593 5590 5586 5582 5577 5571 5565 5560 5557 5553 5550 5545 5540 5535 5531 5525
5640 5638 5632 5631 5631 5628 5625 5623 5622 5619 5619 5620 5620 5619 5620 5619 5619 5619 5617 5614 5611 5608 5604 5606 5604 5603 5599 5595 5590 5587 5583 5577 5572 5568 5563 5557 5553 5548 5543 5539 5535 5531 5526
5635 5635 5632 5629 5628 5627 5623 5618 5617 5617 5614 5616 5616 5616 5619 5617 5618 5617 5616 5615 5611 5608 5605 5605 5606 5603 5598 5594 5589 5584 5581 5577 5574 5569 5564 5559 5553 5547 5543 5538 5535 5531 5526
5633 5633 5632 5628 5626 5627 5622 5618 5614 5611 5613 5613 5615 5613 5616 5615 5617 5616 5615 5615 5612 5609 5606 5602 5601 5599 5596 5595 5590 5584 5580 5576 5574 5570 5565 5561 5553 5548 5545 5539 5535 5530 5525
5632 5631 5631 5630 5627 5625 5621 5618 5617 5613 5613 5615 5615 5613 5616 5613 5614 5616 5614 5614 5611 5610 5606 5602 5598 5596 5592 5590 5584 5581 5578 5576 5573 5568 5564 5560 5558 5551 5544 5538 5534 5529 5524
5631 5631 5630 5628 5628 5624 5621 5619 5618 5615 5612 5612 5614 5616 5616 5613 5615 5616 5613 5613 5612 5608 5604 5602 5595 5592 5591 5587 5583 5579 5571 5572 5571 5568 5563 5559 5555 5553 5547 5543 5537 5530 5524
5633 5631 5630 5629 5627 5626 5623 5622 5617 5616 5613 5612 5612 5615 5617 5614 5613 5614 5612 5614 5610 5607 5604 5599 5597 5590 5588 5584 5582 5576 5574 5567 5568 5564 5564 5559 5554 5549 5544 5541 5536 5530 5526
5629 5629 5631 5628 5628 5628 5625 5622 5617 5614 5614 5613 5613 5615 5615 5612 5609 5610 5611 5612 5610 5607 5605 5601 5599 5596 5594 5590 5584 5577 5572 5562 5561 5561 5559 5564 5554 5549 5547 5542 5538 5536 5531
5626 5626 5626 5626 5628 5629 5626 5622 5618 5617 5615 5614 5615 5615 5613 5614 5609 5606 5606 5606 5605 5606 5608 5607 5604 5604 5596 5593 5584 5579 5573 5568 5572 5569 5563 5562 5553 5552 5546 5544 5539 5533 5530
5621 5622 5622 5623 5624 5628 5625 5620 5619 5617 5613 5615 5614 5615 5612 5613 5611 5607 5607 5605 5602 5603 5600 5601 5604 5607 5603 5596 5590 5587 5580 5576 5572 5566 5560 5555 5554 5553 5550 5551 5546 5539 5531
5614 5617 5619 5619 5621 5623 5621 5619 5613 5609 5610 5613 5613 5614 5611 5609 5610 5606 5606 5605 5604 5601 5604 5603 5604 5603 5598 5596 5590 5578 5571 5561 5563 5561 5559 5552 5550 5548 5546 5547 5545 5539 5534
5609 5609 5611 5614 5615 5617 5616 5614 5609 5607 5605 5606 5609 5612 5606 5605 5603 5602 5602 5606 5602 5605 5604 5603 5595 5596 5595 5591 5585 5582 5576 5567 5556 5550 5560 5545 5541 5536 5531 5540 5538 5534 5529